| time (UTC) | temp F | wind direction | speed MPH | gust MPH | rain 1hr in | rain 24hr in | rain mn in | humidity % | barometer mb |
| 20260510033611 | 77 | 149 | 3.0 | 3.0 | 0.00 | 0.07 | 0.07 | 79 | 1011.5 |
| 20260510033109 | 77 | 170 | 2.0 | 3.0 | 0.00 | 0.07 | 0.07 | 79 | 1011.4 |
| 20260510032605 | 76 | 174 | 3.0 | 4.0 | 0.00 | 0.07 | 0.07 | 79 | 1011.4 |
| 20260510032101 | 76 | 157 | 2.0 | 2.0 | 0.00 | 0.07 | 0.07 | 80 | 1011.5 |
| 20260510031556 | 75 | 196 | 2.0 | 2.0 | 0.00 | 0.07 | 0.07 | 82 | 1011.2 |
| 20260510031052 | 74 | 218 | 0.0 | 0.0 | 0.00 | 0.07 | 0.07 | 87 | 1011.1 |
| 20260510030547 | 73 | 220 | 1.0 | 1.0 | 0.00 | 0.07 | 0.07 | 89 | 1010.9 |
| 20260510030045 | 73 | 186 | 1.0 | 1.0 | 0.00 | 0.07 | 0.07 | 91 | 1010.8 |
| 20260510025542 | 73 | 210 | 0.0 | 0.0 | 0.00 | 0.07 | 0.07 | 91 | 1010.6 |
| 20260510025040 | 72 | 227 | 2.0 | 2.0 | 0.00 | 0.07 | 0.07 | 93 | 1010.5 |
| 20260510024536 | 73 | 244 | 0.0 | 0.0 | 0.00 | 0.07 | 0.07 | 93 | 1010.4 |
| 20260510024032 | 73 | 248 | 0.0 | 0.0 | 0.00 | 0.07 | 0.07 | 93 | 1010.3 |
| 20260510023528 | 73 | 236 | 0.0 | 0.0 | 0.00 | 0.07 | 0.07 | 93 | 1010.0 |
| 20260510023026 | 73 | 213 | 1.0 | 1.0 | 0.00 | 0.07 | 0.07 | 93 | 1010.0 |
| 20260510022525 | 73 | 195 | 0.0 | 1.0 | 0.00 | 0.07 | 0.07 | 92 | 1009.9 |
| 20260510022020 | 73 | 233 | 0.0 | 0.0 | 0.00 | 0.07 | 0.07 | 92 | 1009.8 |
| 20260510021517 | 73 | 230 | 0.0 | 0.0 | 0.00 | 0.07 | 0.07 | 91 | 1009.8 |
| 20260510021014 | 73 | 198 | 1.0 | 2.0 | 0.00 | 0.07 | 0.07 | 93 | 1009.7 |
| 20260510020508 | 74 | 209 | 2.0 | 2.0 | 0.00 | 0.07 | 0.07 | 92 | 1009.6 |
| 20260510020005 | 74 | 222 | 1.0 | 2.0 | 0.00 | 0.07 | 0.07 | 91 | 1009.4 |
| 20260510015500 | 73 | 209 | 0.0 | 1.0 | 0.00 | 0.07 | 0.07 | 92 | 1009.4 |
| 20260510014955 | 73 | 107 | 2.0 | 2.0 | 0.00 | 0.07 | 0.07 | 95 | 1009.1 |
| 20260510014454 | 73 | 222 | 0.0 | 0.0 | 0.00 | 0.07 | 0.07 | 95 | 1008.8 |
| 20260510013950 | 73 | 195 | 2.0 | 2.0 | 0.00 | 0.07 | 0.07 | 95 | 1008.8 |
| 20260510013444 | 73 | 237 | 0.0 | 0.0 | 0.00 | 0.07 | 0.07 | 95 | 1008.8 |
| 20260510012940 | 73 | 239 | 0.0 | 0.0 | 0.00 | 0.07 | 0.07 | 94 | 1008.2 |
| 20260510012435 | 72 | 234 | 0.0 | 0.0 | 0.00 | 0.07 | 0.07 | 94 | 1008.2 |
| 20260510011931 | 72 | 226 | 0.0 | 1.0 | 0.00 | 0.07 | 0.07 | 94 | 1008.5 |
| 20260510011425 | 72 | 239 | 1.0 | 1.0 | 0.00 | 0.07 | 0.07 | 94 | 1008.4 |
| 20260510010922 | 72 | 251 | 1.0 | 1.0 | 0.00 | 0.07 | 0.07 | 93 | 1008.2 |
| 20260510010419 | 72 | 265 | 0.0 | 1.0 | 0.00 | 0.07 | 0.07 | 93 | 1008.6 |
| 20260510005916 | 71 | 239 | 1.0 | 1.0 | 0.00 | 0.07 | 0.07 | 93 | 1008.6 |
| 20260510005412 | 71 | 239 | 1.0 | 1.0 | 0.00 | 0.07 | 0.07 | 93 | 1008.3 |
| 20260510004909 | 71 | 233 | 1.0 | 1.0 | 0.00 | 0.07 | 0.07 | 92 | 1008.1 |
| 20260510004407 | 72 | 229 | 1.0 | 1.0 | 0.12 | 0.07 | 0.07 | 90 | 1008.2 |
| 20260510003904 | 72 | 236 | 1.0 | 1.0 | 0.19 | 0.07 | 0.07 | 87 | 1008.0 |
| 20260510003401 | 72 | 249 | 0.0 | 1.0 | 0.12 | 0.05 | 0.05 | 86 | 1008.1 |
| 20260510002900 | 72 | 235 | 1.0 | 1.0 | 0.12 | 0.04 | 0.04 | 87 | 1008.9 |
| 20260510002358 | 71 | 255 | 1.0 | 2.0 | 0.07 | 0.03 | 0.03 | 84 | 1009.0 |
| 20260510001854 | 72 | 264 | 3.0 | 4.0 | 0.00 | 0.02 | 0.02 | 82 | 1008.9 |
| 20260510001352 | 73 | 355 | 4.0 | 6.0 | 0.00 | 0.02 | 0.02 | 79 | 1008.7 |
| 20260510000848 | 75 | 316 | 4.0 | 6.0 | 0.00 | 0.02 | 0.02 | 75 | 1008.6 |
| 20260510000345 | 75 | 3 | 10.0 | 14.0 | 0.00 | 0.02 | 0.02 | 70 | 1008.4 |
| 20260509235842 | 75 | 316 | 6.0 | 8.0 | 0.00 | 0.02 | 0.02 | 71 | 1008.2 |
| 20260509235338 | 76 | 346 | 9.0 | 13.0 | 0.00 | 0.02 | 0.02 | 71 | 1008.2 |
| 20260509234835 | 79 | 315 | 3.0 | 4.0 | 0.00 | 0.02 | 0.02 | 85 | 1008.0 |
| 20260509234332 | 79 | 328 | 2.0 | 2.0 | 0.00 | 0.02 | 0.02 | 86 | 1007.9 |
| 20260509233830 | 79 | 269 | 1.0 | 2.0 | 0.05 | 0.02 | 0.02 | 86 | 1007.8 |
| 20260509233327 | 79 | 238 | 4.0 | 4.0 | 0.05 | 0.02 | 0.02 | 86 | 1007.8 |
| 20260509232822 | 80 | 351 | 4.0 | 4.0 | 0.12 | 0.02 | 0.02 | 82 | 1007.8 |
| 20260509232320 | 84 | 339 | 3.0 | 4.0 | 0.07 | 0.01 | 0.01 | 79 | 1007.8 |
| 20260509231816 | 87 | 290 | 2.0 | 3.0 | 0.00 | 0.00 | 0.00 | 69 | 1008.1 |
| 20260509231313 | 88 | 233 | 0.0 | 0.0 | 0.00 | 0.00 | 0.00 | 63 | 1008.0 |
| 20260509230812 | 88 | 228 | 1.0 | 1.0 | 0.00 | 0.00 | 0.00 | 61 | 1008.0 |
| 20260509230308 | 87 | 205 | 2.0 | 2.0 | 0.00 | 0.00 | 0.00 | 60 | 1007.8 |
| 20260509225803 | 88 | 223 | 0.0 | 1.0 | 0.00 | 0.00 | 0.00 | 61 | 1007.8 |
| 20260509225300 | 88 | 218 | 1.0 | 1.0 | 0.00 | 0.00 | 0.00 | 62 | 1007.6 |
| 20260509224756 | 88 | 228 | 0.0 | 1.0 | 0.00 | 0.00 | 0.00 | 62 | 1007.5 |
| 20260509224253 | 88 | 223 | 1.0 | 1.0 | 0.00 | 0.00 | 0.00 | 61 | 1007.6 |
| 20260509223749 | 88 | 226 | 1.0 | 2.0 | 0.00 | 0.00 | 0.00 | 62 | 1007.3 |
| 20260509223246 | 89 | 223 | 0.0 | 1.0 | 0.00 | 0.00 | 0.00 | 61 | 1007.5 |
| 20260509222743 | 88 | 218 | 1.0 | 1.0 | 0.00 | 0.00 | 0.00 | 62 | 1007.3 |
| 20260509222239 | 88 | 216 | 1.0 | 2.0 | 0.00 | 0.00 | 0.00 | 62 | 1007.3 |
| 20260509221734 | 89 | 161 | 3.0 | 3.0 | 0.00 | 0.00 | 0.00 | 62 | 1007.2 |
| 20260509221231 | 89 | 224 | 1.0 | 1.0 | 0.00 | 0.00 | 0.00 | 62 | 1007.3 |
| 20260509220727 | 90 | 207 | 3.0 | 3.0 | 0.00 | 0.00 | 0.00 | 62 | 1007.4 |
| 20260509220223 | 90 | 229 | 0.0 | 0.0 | 0.00 | 0.00 | 0.00 | 61 | 1007.3 |
| 20260509215719 | 90 | 241 | 0.0 | 1.0 | 0.00 | 0.00 | 0.00 | 61 | 1007.3 |
| 20260509215215 | 92 | 336 | 2.0 | 3.0 | 0.00 | 0.00 | 0.00 | 58 | 1007.4 |
| 20260509214713 | 95 | 236 | 2.0 | 2.0 | 0.00 | 0.00 | 0.00 | 52 | 1007.4 |
| 20260509214210 | 94 | 240 | 1.0 | 2.0 | 0.00 | 0.00 | 0.00 | 54 | 1007.3 |
| 20260509213707 | 94 | 255 | 1.0 | 2.0 | 0.00 | 0.00 | 0.00 | 59 | 1007.4 |
| 20260509213202 | 92 | 225 | 0.0 | 1.0 | 0.00 | 0.00 | 0.00 | 58 | 1007.3 |
| 20260509212700 | 93 | 245 | 2.0 | 2.0 | 0.00 | 0.00 | 0.00 | 57 | 1007.5 |
| 20260509212157 | 92 | 253 | 2.0 | 3.0 | 0.00 | 0.00 | 0.00 | 59 | 1007.4 |
| 20260509211652 | 93 | 263 | 2.0 | 2.0 | 0.00 | 0.00 | 0.00 | 57 | 1007.2 |
| 20260509211149 | 92 | 228 | 0.0 | 1.0 | 0.00 | 0.00 | 0.00 | 59 | 1007.3 |
| 20260509210647 | 90 | 208 | 1.0 | 1.0 | 0.00 | 0.00 | 0.00 | 59 | 1007.5 |
| 20260509210144 | 92 | 227 | 0.0 | 1.0 | 0.00 | 0.00 | 0.00 | 57 | 1007.7 |
| 20260509205639 | 92 | 232 | 0.0 | 1.0 | 0.00 | 0.00 | 0.00 | 61 | 1007.6 |
| 20260509205138 | 93 | 224 | 0.0 | 1.0 | 0.00 | 0.00 | 0.00 | 56 | 1007.7 |
| 20260509204635 | 93 | 207 | 2.0 | 2.0 | 0.00 | 0.00 | 0.00 | 56 | 1007.7 |
| 20260509204131 | 92 | 245 | 2.0 | 3.0 | 0.00 | 0.00 | 0.00 | 54 | 1007.9 |
| 20260509203627 | 92 | 227 | 0.0 | 1.0 | 0.00 | 0.00 | 0.00 | 55 | 1007.9 |
| 20260509203126 | 93 | 243 | 1.0 | 1.0 | 0.00 | 0.00 | 0.00 | 53 | 1008.1 |
| 20260509202626 | 90 | 237 | 0.0 | 1.0 | 0.00 | 0.00 | 0.00 | 55 | 1008.0 |
| 20260509202121 | 89 | 213 | 1.0 | 1.0 | 0.00 | 0.00 | 0.00 | 59 | 1008.0 |
| 20260509201616 | 90 | 237 | 2.0 | 2.0 | 0.00 | 0.00 | 0.00 | 55 | 1008.1 |
| 20260509201114 | 89 | 250 | 1.0 | 1.0 | 0.00 | 0.00 | 0.00 | 58 | 1008.4 |
| 20260509200615 | 89 | 262 | 2.0 | 2.0 | 0.00 | 0.00 | 0.00 | 59 | 1008.3 |
| 20260509200110 | 88 | 221 | 1.0 | 1.0 | 0.00 | 0.00 | 0.00 | 61 | 1008.3 |
| 20260509195606 | 88 | 310 | 2.0 | 2.0 | 0.00 | 0.00 | 0.00 | 63 | 1008.3 |
| 20260509195101 | 88 | 279 | 2.0 | 2.0 | 0.00 | 0.00 | 0.00 | 64 | 1008.3 |
| 20260509194601 | 91 | 243 | 1.0 | 2.0 | 0.00 | 0.00 | 0.00 | 60 | 1008.4 |
| 20260509194059 | 91 | 244 | 1.0 | 2.0 | 0.00 | 0.00 | 0.00 | 58 | 1008.5 |
| 20260509193554 | 90 | 236 | 1.0 | 1.0 | 0.00 | 0.00 | 0.00 | 61 | 1008.6 |
| 20260509193050 | 90 | 221 | 1.0 | 2.0 | 0.00 | 0.00 | 0.00 | 58 | 1008.5 |
| 20260509192547 | 89 | 254 | 1.0 | 1.0 | 0.00 | 0.00 | 0.00 | 61 | 1008.6 |
| 20260509192042 | 88 | 285 | 2.0 | 3.0 | 0.00 | 0.00 | 0.00 | 62 | 1008.7 |
| 20260509191537 | 88 | 291 | 1.0 | 1.0 | 0.00 | 0.00 | 0.00 | 62 | 1008.5 |
| 20260509191033 | 89 | 274 | 1.0 | 2.0 | 0.00 | 0.00 | 0.00 | 61 | 1008.5 |
| 20260509190530 | 89 | 274 | 1.0 | 2.0 | 0.00 | 0.00 | 0.00 | 62 | 1008.6 |
| 20260509190028 | 89 | 241 | 0.0 | 1.0 | 0.00 | 0.00 | 0.00 | 63 | 1008.6 |
| 20260509185525 | 89 | 244 | 1.0 | 2.0 | 0.00 | 0.00 | 0.00 | 64 | 1008.7 |
| 20260509185021 | 88 | 238 | 1.0 | 1.0 | 0.00 | 0.00 | 0.00 | 65 | 1008.9 |
| 20260509184520 | 88 | 316 | 1.0 | 2.0 | 0.00 | 0.00 | 0.00 | 65 | 1008.8 |
| 20260509184016 | 87 | 239 | 1.0 | 1.0 | 0.00 | 0.00 | 0.00 | 64 | 1008.8 |
| 20260509183511 | 88 | 264 | 3.0 | 3.0 | 0.00 | 0.00 | 0.00 | 64 | 1008.7 |
| 20260509183007 | 89 | 223 | 1.0 | 1.0 | 0.00 | 0.00 | 0.00 | 62 | 1008.9 |
| 20260509182504 | 88 | 237 | 1.0 | 1.0 | 0.00 | 0.00 | 0.00 | 64 | 1009.3 |
| 20260509182001 | 88 | 246 | 2.0 | 2.0 | 0.00 | 0.00 | 0.00 | 64 | 1009.2 |
| 20260509181459 | 88 | 241 | 2.0 | 2.0 | 0.00 | 0.00 | 0.00 | 66 | 1009.5 |
| 20260509180956 | 87 | 223 | 1.0 | 2.0 | 0.00 | 0.00 | 0.00 | 65 | 1009.1 |
| 20260509180451 | 86 | 256 | 1.0 | 1.0 | 0.00 | 0.00 | 0.00 | 70 | 1009.5 |
| 20260509175949 | 86 | 253 | 2.0 | 2.0 | 0.00 | 0.00 | 0.00 | 67 | 1009.6 |
| 20260509175445 | 86 | 244 | 2.0 | 3.0 | 0.00 | 0.00 | 0.00 | 67 | 1009.6 |
| 20260509174941 | 85 | 121 | 3.0 | 3.0 | 0.00 | 0.00 | 0.00 | 70 | 1009.8 |
| 20260509174438 | 85 | 197 | 3.0 | 4.0 | 0.00 | 0.00 | 0.00 | 74 | 1009.7 |
| 20260509173933 | 85 | 148 | 6.0 | 7.0 | 0.00 | 0.00 | 0.00 | 73 | 1009.8 |
| 20260509173433 | 85 | 207 | 2.0 | 2.0 | 0.00 | 0.00 | 0.00 | 73 | 1010.0 |
| 20260509172930 | 86 | 210 | 2.0 | 3.0 | 0.00 | 0.00 | 0.00 | 71 | 1010.0 |
| 20260509172427 | 87 | 229 | 0.0 | 1.0 | 0.00 | 0.00 | 0.00 | 70 | 1010.3 |
| 20260509171922 | 87 | 227 | 2.0 | 3.0 | 0.00 | 0.00 | 0.00 | 71 | 1010.2 |
| 20260509171418 | 84 | 225 | 0.0 | 1.0 | 0.00 | 0.00 | 0.00 | 77 | 1010.3 |
| 20260509170915 | 83 | 247 | 2.0 | 2.0 | 0.00 | 0.00 | 0.00 | 78 | 1010.4 |
| 20260509170410 | 84 | 166 | 2.0 | 3.0 | 0.00 | 0.00 | 0.00 | 80 | 1010.4 |
| 20260509165907 | 83 | 221 | 1.0 | 1.0 | 0.00 | 0.00 | 0.00 | 80 | 1010.5 |
| 20260509165400 | 85 | 100 | 4.0 | 4.0 | 0.00 | 0.00 | 0.00 | 78 | 1010.4 |
| 20260509164856 | 84 | 227 | 0.0 | 0.0 | 0.00 | 0.00 | 0.00 | 79 | 1010.5 |
| 20260509164353 | 84 | 190 | 1.0 | 2.0 | 0.00 | 0.00 | 0.00 | 80 | 1010.6 |
| 20260509163849 | 82 | 249 | 0.0 | 0.0 | 0.00 | 0.00 | 0.00 | 81 | 1010.5 |
| 20260509163346 | 82 | 226 | 0.0 | 0.0 | 0.00 | 0.00 | 0.00 | 85 | 1010.4 |
| 20260509162845 | 81 | 224 | 0.0 | 0.0 | 0.00 | 0.00 | 0.00 | 85 | 1010.5 |
| 20260509162344 | 82 | 215 | 0.0 | 0.0 | 0.00 | 0.00 | 0.00 | 84 | 1010.5 |
| 20260509161840 | 81 | 234 | 0.0 | 0.0 | 0.00 | 0.00 | 0.00 | 84 | 1010.4 |
| 20260509161336 | 81 | 225 | 0.0 | 0.0 | 0.00 | 0.00 | 0.00 | 84 | 1010.4 |
| 20260509160832 | 80 | 239 | 1.0 | 1.0 | 0.00 | 0.00 | 0.00 | 86 | 1010.4 |
| 20260509160329 | 80 | 238 | 0.0 | 0.0 | 0.00 | 0.00 | 0.00 | 87 | 1010.4 |
| 20260509155824 | 81 | 239 | 0.0 | 0.0 | 0.00 | 0.00 | 0.00 | 86 | 1010.3 |
| 20260509155320 | 80 | 239 | 0.0 | 0.0 | 0.00 | 0.00 | 0.00 | 88 | 1010.3 |
| 20260509154817 | 80 | 249 | 1.0 | 1.0 | 0.00 | 0.00 | 0.00 | 88 | 1010.2 |
| 20260509154313 | 80 | 248 | 0.0 | 0.0 | 0.00 | 0.00 | 0.00 | 89 | 1010.1 |
| 20260509153810 | 79 | 244 | 0.0 | 1.0 | 0.00 | 0.00 | 0.00 | 91 | 1010.1 |
| 20260509153307 | 78 | 265 | 1.0 | 2.0 | 0.00 | 0.00 | 0.00 | 91 | 1010.0 |
| 20260509152804 | 78 | 238 | 0.0 | 0.0 | 0.00 | 0.00 | 0.00 | 92 | 1010.2 |
| 20260509152259 | 78 | 254 | 1.0 | 1.0 | 0.00 | 0.00 | 0.00 | 92 | 1010.4 |
| 20260509151757 | 78 | 199 | 0.0 | 0.0 | 0.00 | 0.00 | 0.00 | 92 | 1010.1 |
| 20260509151253 | 78 | 256 | 1.0 | 1.0 | 0.00 | 0.00 | 0.00 | 93 | 1010.1 |
| 20260509150752 | 78 | 230 | 0.0 | 0.0 | 0.00 | 0.00 | 0.00 | 94 | 1010.1 |
| 20260509150250 | 77 | 226 | 1.0 | 1.0 | 0.00 | 0.00 | 0.00 | 94 | 1010.1 |
| 20260509145746 | 77 | 265 | 1.0 | 2.0 | 0.00 | 0.00 | 0.00 | 95 | 1010.0 |
| 20260509145246 | 77 | 239 | 0.0 | 0.0 | 0.00 | 0.00 | 0.00 | 96 | 1010.1 |
| 20260509144743 | 77 | 215 | 0.0 | 0.0 | 0.00 | 0.00 | 0.00 | 96 | 1010.0 |
| 20260509144239 | 77 | 250 | 0.0 | 0.0 | 0.00 | 0.00 | 0.00 | 97 | 1010.1 |
| 20260509143736 | 77 | 236 | 0.0 | 0.0 | 0.00 | 0.00 | 0.00 | 97 | 1009.9 |
| 20260509143234 | 77 | 233 | 0.0 | 0.0 | 0.00 | 0.00 | 0.00 | 98 | 1009.8 |
| 20260509142730 | 76 | 231 | 0.0 | 0.0 | 0.00 | 0.00 | 0.00 | 98 | 1009.7 |
| 20260509142226 | 76 | 257 | 0.0 | 0.0 | 0.00 | 0.00 | 0.00 | 99 | 1009.6 |
| 20260509141722 | 76 | 217 | 0.0 | 0.0 | 0.00 | 0.00 | 0.00 | 99 | 1009.3 |
| 20260509141220 | 76 | 233 | 0.0 | 0.0 | 0.00 | 0.00 | 0.00 | 99 | 1009.0 |
| 20260509140716 | 75 | 229 | 0.0 | 0.0 | 0.00 | 0.00 | 0.00 | 99 | 1009.0 |
| 20260509140213 | 75 | 215 | 0.0 | 0.0 | 0.00 | 0.00 | 0.00 | 99 | 1009.1 |
| 20260509135710 | 76 | 236 | 0.0 | 0.0 | 0.00 | 0.00 | 0.00 | 99 | 1009.0 |
| 20260509135208 | 76 | 229 | 0.0 | 0.0 | 0.00 | 0.00 | 0.00 | 99 | 1009.4 |
| 20260509134705 | 76 | 232 | 0.0 | 0.0 | 0.00 | 0.00 | 0.00 | 99 | 1009.7 |
| 20260509134203 | 75 | 233 | 0.0 | 0.0 | 0.00 | 0.00 | 0.00 | 99 | 1009.9 |
| 20260509133659 | 75 | 222 | 0.0 | 0.0 | 0.00 | 0.00 | 0.00 | 99 | 1009.8 |
| 20260509133156 | 76 | 231 | 0.0 | 0.0 | 0.00 | 0.00 | 0.00 | 99 | 1010.2 |
| 20260509132654 | 76 | 210 | 1.0 | 1.0 | 0.00 | 0.00 | 0.00 | 99 | 1010.0 |
| 20260509132153 | 75 | 234 | 0.0 | 0.0 | 0.00 | 0.00 | 0.00 | 99 | 1010.4 |
| 20260509131649 | 75 | 230 | 0.0 | 0.0 | 0.00 | 0.00 | 0.00 | 99 | 1010.4 |
| 20260509131146 | 75 | 211 | 0.0 | 0.0 | 0.00 | 0.00 | 0.00 | 99 | 1010.5 |
| 20260509130641 | 75 | 233 | 0.0 | 0.0 | 0.00 | 0.00 | 0.00 | 99 | 1010.6 |
| 20260509130138 | 75 | 236 | 0.0 | 0.0 | 0.00 | 0.00 | 0.00 | 99 | 1010.7 |
| 20260509125635 | 75 | 232 | 0.0 | 0.0 | 0.00 | 0.00 | 0.00 | 99 | 1010.5 |
| 20260509125131 | 75 | 229 | 0.0 | 0.0 | 0.00 | 0.00 | 0.00 | 99 | 1010.1 |
| 20260509124628 | 75 | 202 | 1.0 | 1.0 | 0.00 | 0.00 | 0.00 | 99 | 1009.9 |
| 20260509124125 | 75 | 221 | 0.0 | 0.0 | 0.00 | 0.00 | 0.00 | 99 | 1010.3 |
| 20260509123623 | 75 | 237 | 0.0 | 0.0 | 0.00 | 0.00 | 0.00 | 99 | 1010.6 |
| 20260509123119 | 75 | 237 | 0.0 | 0.0 | 0.00 | 0.00 | 0.00 | 99 | 1010.5 |
| 20260509122615 | 75 | 236 | 0.0 | 0.0 | 0.00 | 0.00 | 0.00 | 99 | 1010.3 |
| 20260509122113 | 75 | 230 | 0.0 | 0.0 | 0.00 | 0.00 | 0.00 | 99 | 1010.1 |
| 20260509121609 | 74 | 229 | 0.0 | 0.0 | 0.00 | 0.00 | 0.00 | 99 | 1010.2 |
| 20260509121106 | 74 | 225 | 0.0 | 0.0 | 0.00 | 0.00 | 0.00 | 99 | 1010.5 |
| 20260509120604 | 74 | 228 | 0.0 | 0.0 | 0.00 | 0.00 | 0.00 | 99 | 1010.4 |
| 20260509115600 | 74 | 233 | 0.0 | 0.0 | 0.00 | 0.00 | 0.00 | 99 | 1010.2 |
| 20260509115057 | 74 | 231 | 0.0 | 0.0 | 0.00 | 0.00 | 0.00 | 99 | 1010.2 |
| 20260509114555 | 74 | 239 | 0.0 | 0.0 | 0.00 | 0.00 | 0.00 | 99 | 1010.0 |
| 20260509114054 | 74 | 239 | 0.0 | 0.0 | 0.00 | 0.00 | 0.00 | 99 | 1009.8 |
| 20260509113552 | 74 | 237 | 0.0 | 0.0 | 0.00 | 0.00 | 0.00 | 99 | 1009.9 |
| 20260509113049 | 74 | 242 | 0.0 | 0.0 | 0.00 | 0.00 | 0.00 | 99 | 1009.9 |
| 20260509112545 | 74 | 248 | 0.0 | 0.0 | 0.00 | 0.00 | 0.00 | 99 | 1009.7 |
| 20260509112042 | 74 | 230 | 0.0 | 0.0 | 0.00 | 0.00 | 0.00 | 99 | 1009.7 |
| 20260509111540 | 74 | 230 | 0.0 | 0.0 | 0.00 | 0.00 | 0.00 | 99 | 1009.6 |
| 20260509111037 | 74 | 230 | 0.0 | 0.0 | 0.00 | 0.00 | 0.00 | 99 | 1009.6 |
| 20260509110533 | 74 | 229 | 0.0 | 0.0 | 0.00 | 0.00 | 0.00 | 99 | 1009.7 |
| 20260509110031 | 74 | 230 | 0.0 | 0.0 | 0.00 | 0.00 | 0.00 | 99 | 1009.8 |
| 20260509105529 | 74 | 229 | 0.0 | 0.0 | 0.00 | 0.00 | 0.00 | 99 | 1009.7 |
| 20260509105026 | 74 | 230 | 0.0 | 0.0 | 0.00 | 0.00 | 0.00 | 99 | 1009.5 |
| 20260509104523 | 74 | 228 | 0.0 | 0.0 | 0.00 | 0.00 | 0.00 | 99 | 1009.6 |
| 20260509104020 | 74 | 230 | 0.0 | 0.0 | 0.00 | 0.00 | 0.00 | 99 | 1009.4 |
| 20260509103518 | 74 | 229 | 0.0 | 0.0 | 0.00 | 0.00 | 0.00 | 99 | 1009.6 |
| 20260509103016 | 74 | 228 | 0.0 | 0.0 | 0.00 | 0.00 | 0.00 | 99 | 1009.4 |
| 20260509102513 | 74 | 233 | 0.0 | 0.0 | 0.00 | 0.00 | 0.00 | 99 | 1009.6 |
| 20260509102009 | 75 | 237 | 0.0 | 0.0 | 0.00 | 0.00 | 0.00 | 99 | 1009.4 |
| 20260509101506 | 74 | 231 | 0.0 | 0.0 | 0.00 | 0.00 | 0.00 | 99 | 1009.6 |
| 20260509101003 | 75 | 236 | 0.0 | 0.0 | 0.00 | 0.00 | 0.00 | 99 | 1009.5 |
| 20260509100500 | 75 | 239 | 0.0 | 0.0 | 0.00 | 0.00 | 0.00 | 99 | 1009.5 |
| 20260509095956 | 75 | 235 | 0.0 | 0.0 | 0.00 | 0.00 | 0.00 | 99 | 1009.5 |
| 20260509095453 | 75 | 229 | 0.0 | 0.0 | 0.00 | 0.00 | 0.00 | 99 | 1009.2 |
| 20260509094951 | 75 | 228 | 1.0 | 2.0 | 0.00 | 0.00 | 0.00 | 99 | 1009.2 |
| 20260509094447 | 75 | 230 | 0.0 | 0.0 | 0.00 | 0.00 | 0.00 | 99 | 1008.9 |
| 20260509093944 | 74 | 227 | 0.0 | 0.0 | 0.00 | 0.00 | 0.00 | 99 | 1009.0 |
| 20260509093442 | 75 | 230 | 0.0 | 0.0 | 0.00 | 0.00 | 0.00 | 99 | 1009.0 |
| 20260509092940 | 75 | 234 | 0.0 | 0.0 | 0.00 | 0.00 | 0.00 | 99 | 1009.0 |
| 20260509092437 | 75 | 236 | 0.0 | 0.0 | 0.00 | 0.00 | 0.00 | 99 | 1008.9 |
| 20260509091936 | 75 | 236 | 0.0 | 0.0 | 0.00 | 0.00 | 0.00 | 99 | 1008.8 |
| 20260509091432 | 75 | 239 | 0.0 | 0.0 | 0.00 | 0.00 | 0.00 | 99 | 1008.9 |
| 20260509090930 | 75 | 243 | 0.0 | 0.0 | 0.00 | 0.00 | 0.00 | 99 | 1009.3 |
| 20260509090427 | 75 | 234 | 0.0 | 0.0 | 0.00 | 0.00 | 0.00 | 99 | 1009.4 |
| 20260509085925 | 75 | 238 | 0.0 | 0.0 | 0.00 | 0.00 | 0.00 | 99 | 1009.4 |
| 20260509085421 | 75 | 234 | 0.0 | 0.0 | 0.00 | 0.00 | 0.00 | 99 | 1009.4 |
| 20260509084917 | 75 | 234 | 0.0 | 0.0 | 0.00 | 0.00 | 0.00 | 99 | 1009.4 |
| 20260509084414 | 75 | 235 | 0.0 | 0.0 | 0.00 | 0.00 | 0.00 | 99 | 1009.5 |
| 20260509083912 | 75 | 236 | 0.0 | 0.0 | 0.00 | 0.00 | 0.00 | 99 | 1009.1 |
| 20260509083409 | 75 | 234 | 0.0 | 0.0 | 0.00 | 0.00 | 0.00 | 99 | 1009.2 |
| 20260509082905 | 75 | 234 | 0.0 | 0.0 | 0.00 | 0.00 | 0.00 | 99 | 1009.3 |
| 20260509082403 | 75 | 224 | 0.0 | 0.0 | 0.00 | 0.00 | 0.00 | 99 | 1009.1 |
| 20260509081859 | 75 | 221 | 0.0 | 0.0 | 0.00 | 0.00 | 0.00 | 99 | 1009.2 |
| 20260509081357 | 75 | 227 | 0.0 | 0.0 | 0.00 | 0.00 | 0.00 | 99 | 1009.3 |
| 20260509080854 | 75 | 222 | 0.0 | 0.0 | 0.00 | 0.00 | 0.00 | 99 | 1009.3 |
| 20260509080352 | 75 | 238 | 0.0 | 0.0 | 0.00 | 0.00 | 0.00 | 99 | 1009.1 |
| 20260509075850 | 75 | 241 | 0.0 | 0.0 | 0.00 | 0.00 | 0.00 | 99 | 1008.9 |
| 20260509075347 | 75 | 229 | 0.0 | 0.0 | 0.00 | 0.00 | 0.00 | 99 | 1008.9 |
| 20260509074844 | 75 | 154 | 2.0 | 3.0 | 0.00 | 0.00 | 0.00 | 99 | 1008.8 |
| 20260509074342 | 75 | 229 | 1.0 | 2.0 | 0.00 | 0.00 | 0.00 | 99 | 1008.8 |
| 20260509073838 | 75 | 179 | 0.0 | 1.0 | 0.00 | 0.00 | 0.00 | 99 | 1008.9 |
| 20260509073334 | 75 | 197 | 2.0 | 2.0 | 0.00 | 0.00 | 0.00 | 99 | 1009.0 |
| 20260509072831 | 75 | 220 | 1.0 | 1.0 | 0.00 | 0.00 | 0.00 | 99 | 1009.3 |
| 20260509072327 | 75 | 201 | 1.0 | 1.0 | 0.00 | 0.00 | 0.00 | 99 | 1009.5 |
| 20260509071824 | 75 | 208 | 0.0 | 1.0 | 0.00 | 0.00 | 0.00 | 99 | 1009.5 |
| 20260509071321 | 75 | 226 | 0.0 | 0.0 | 0.00 | 0.00 | 0.00 | 99 | 1009.7 |
| 20260509070819 | 75 | 213 | 0.0 | 0.0 | 0.00 | 0.00 | 0.00 | 99 | 1009.6 |
| 20260509070315 | 75 | 228 | 0.0 | 0.0 | 0.00 | 0.00 | 0.00 | 99 | 1009.8 |
| 20260509065811 | 75 | 230 | 0.0 | 0.0 | 0.00 | 0.00 | 0.00 | 99 | 1009.9 |
| 20260509065308 | 75 | 230 | 0.0 | 0.0 | 0.00 | 0.00 | 0.00 | 99 | 1009.9 |
| 20260509064804 | 75 | 230 | 0.0 | 0.0 | 0.00 | 0.00 | 0.00 | 99 | 1010.0 |
| 20260509064301 | 75 | 228 | 0.0 | 0.0 | 0.00 | 0.00 | 0.00 | 99 | 1009.9 |
| 20260509063759 | 75 | 229 | 0.0 | 0.0 | 0.00 | 0.00 | 0.00 | 99 | 1009.9 |
| 20260509063255 | 75 | 230 | 0.0 | 0.0 | 0.00 | 0.00 | 0.00 | 99 | 1009.8 |
| 20260509062752 | 75 | 232 | 0.0 | 0.0 | 0.00 | 0.00 | 0.00 | 99 | 1009.8 |
| 20260509062249 | 75 | 229 | 0.0 | 0.0 | 0.00 | 0.00 | 0.00 | 99 | 1009.5 |
| 20260509061746 | 75 | 232 | 0.0 | 0.0 | 0.00 | 0.00 | 0.00 | 99 | 1009.7 |
| 20260509061244 | 75 | 215 | 2.0 | 2.0 | 0.00 | 0.00 | 0.00 | 99 | 1009.6 |
| 20260509060741 | 75 | 221 | 1.0 | 2.0 | 0.00 | 0.00 | 0.00 | 99 | 1009.8 |
| 20260509060237 | 75 | 224 | 0.0 | 0.0 | 0.00 | 0.00 | 0.00 | 99 | 1009.9 |
| 20260509055733 | 75 | 206 | 0.0 | 0.0 | 0.00 | 0.00 | 0.00 | 99 | 1009.9 |
| 20260509055229 | 75 | 215 | 0.0 | 0.0 | 0.00 | 0.00 | 0.00 | 99 | 1009.9 |
| 20260509054726 | 75 | 227 | 0.0 | 0.0 | 0.00 | 0.00 | 0.00 | 98 | 1010.0 |
| 20260509054223 | 75 | 193 | 0.0 | 1.0 | 0.00 | 0.00 | 0.00 | 98 | 1010.1 |
| 20260509053722 | 75 | 198 | 1.0 | 1.0 | 0.00 | 0.00 | 0.00 | 98 | 1009.9 |
| 20260509053218 | 75 | 223 | 0.0 | 0.0 | 0.00 | 0.00 | 0.00 | 98 | 1009.9 |
| 20260509052716 | 75 | 187 | 0.0 | 0.0 | 0.00 | 0.00 | 0.00 | 98 | 1010.0 |
| 20260509052213 | 75 | 197 | 0.0 | 1.0 | 0.00 | 0.00 | 0.00 | 98 | 1009.9 |
| 20260509051711 | 75 | 193 | 0.0 | 1.0 | 0.00 | 0.00 | 0.00 | 98 | 1009.8 |
| 20260509051209 | 75 | 206 | 0.0 | 0.0 | 0.00 | 0.00 | 0.00 | 98 | 1010.0 |
| 20260509050705 | 75 | 212 | 0.0 | 0.0 | 0.00 | 0.00 | 0.00 | 98 | 1010.1 |
| 20260509050202 | 75 | 215 | 0.0 | 0.0 | 0.00 | 0.00 | 0.00 | 98 | 1009.9 |
| 20260509045659 | 75 | 205 | 0.0 | 0.0 | 0.00 | 0.11 | 0.11 | 98 | 1009.9 |
| 20260509045156 | 75 | 224 | 0.0 | 0.0 | 0.00 | 0.11 | 0.11 | 98 | 1010.0 |
| 20260509044653 | 75 | 219 | 0.0 | 0.0 | 0.00 | 0.11 | 0.11 | 98 | 1009.8 |
| 20260509044150 | 75 | 225 | 0.0 | 0.0 | 0.00 | 0.11 | 0.11 | 98 | 1009.8 |
| 20260509043647 | 75 | 215 | 0.0 | 1.0 | 0.00 | 0.11 | 0.11 | 98 | 1010.1 |
| 20260509043142 | 75 | 223 | 0.0 | 0.0 | 0.00 | 0.11 | 0.11 | 98 | 1010.1 |
| 20260509042639 | 75 | 213 | 0.0 | 0.0 | 0.00 | 0.11 | 0.11 | 98 | 1010.1 |
| 20260509042135 | 74 | 225 | 1.0 | 1.0 | 0.00 | 0.11 | 0.11 | 98 | 1009.9 |
| 20260509041632 | 74 | 220 | 1.0 | 1.0 | 0.00 | 0.11 | 0.11 | 98 | 1009.9 |
| 20260509041129 | 74 | 221 | 0.0 | 1.0 | 0.00 | 0.11 | 0.11 | 97 | 1010.2 |
| 20260509040628 | 74 | 166 | 0.0 | 1.0 | 0.00 | 0.11 | 0.11 | 97 | 1010.0 |
| 20260509040125 | 74 | 189 | 1.0 | 2.0 | 0.00 | 0.11 | 0.11 | 97 | 1010.0 |
| 20260509035621 | 74 | 183 | 2.0 | 3.0 | 0.00 | 0.11 | 0.11 | 97 | 1009.9 |
| 20260509035118 | 74 | 186 | 2.0 | 2.0 | 0.00 | 0.11 | 0.11 | 97 | 1009.9 |
| 20260509034616 | 74 | 218 | 0.0 | 0.0 | 0.00 | 0.11 | 0.11 | 97 | 1010.0 |
| 20260509034113 | 74 | 220 | 0.0 | 0.0 | 0.00 | 0.11 | 0.11 | 97 | 1009.9 |